sat.trackr.live / text

‹ back to catalog

TRANSPORTER-15 OBJECT AA

NORAD 66690 · 2025-276AA

PAYLOAD ACTIVE UNKNOWN

§ Identity

Operator
Country
TBD
Launch date
2025-11-28
Launch site
AFWTR
Launch vehicle
Mass (kg)
RCS (m²)

External: N2YO · Heavens-Above · Gunter

§ Orbital elements

Epoch: 2026-09-20T02:42:45.674496Z

Period
94.75 min
Inclination
97.4100°
Eccentricity
0.0005614
Mean motion
15.19723457 rev/d
Perigee alt
502.8 km
Apogee alt
510.5 km
Semi-major
6,884.8 km
B*
1.2854e-4
RAAN
334.7378°
Arg perigee
43.4897°
Mean anomaly
316.6780°
Rev number
4,482

§ Raw data

TRANSPORTER-15 OBJECT AA1 66690U 25276AA  26263.11302864  .00002679  00000+0  12854-3 0  99992 66690  97.4100 334.7378 0005614  43.4897 316.6780 15.19723457 44829

JSON: /api/v1/satellites/66690 · /tle

For live sub-satellite position, see the globe view (requires WebGL).

§ Visibility from observer

Set your observer location to see the next 7 days of passes ≥ 10°. The values pass through the URL so the page stays shareable.

No JS? Fill the form by hand. The geolocation button needs JavaScript.